Location: Trebic
(49.2170°N, 15.8830°E)
Time: 06:47:09
(UTC+02:00)

Transit 4A - Pass Details

Date: 03 September 2019
Orbit: 865 x 980 km, 66.8° (Epoch: 15 September)

Event Time Altitude Azimuth Distance (km) Brightness Sun altitude
Rises 01:15:44 0° 323° (NW) 3,632 11.6 -32.9°
Reaches altitude 10° 01:18:19 10° 321° (NW) 2,667 10.8 -32.8°
Enters shadow 01:22:29 43° 307° (NW) 1,277 8.7 -32.8°
Maximum altitude 01:24:29 70° 239° (WSW) 981 - -32.7°
Drops below altitude 10° 01:30:24 10° 157° (SSE) 2,571 - -32.6°
Sets 01:32:52 0° 155° (SSE) 3,492 - -32.5°
